Location: Latina
(41.4670°N, 12.8670°E)
Time: 18:06:23
(UTC+02:00)

ISS - Pass Details

Date: 16 May 2021
Orbit: 417 x 422 km, 51.6° (Epoch: 18 June)

Event Time Altitude Azimuth Distance (km) Brightness Sun altitude
Rises 02:52:27 0° 309° (NW) 2,373 0.2 -24.5°
Reaches altitude 10° 02:54:44 10° 321° (NW) 1,508 -0.7 -24.3°
Maximum altitude 02:57:45 29° 24° (NNE) 802 -1.7 -24.0°
Drops below altitude 10° 03:00:46 10° 87° (E) 1,505 -0.6 -23.7°
Sets 03:03:02 0° 99° (E) 2,368 0.3 -23.5°
